Overview Statistics Trail Chart Weather Telemetry Raw packets
 

This is the latest recevied weather packets stored in our database for station/object K1WJY. If no packets are shown the sender has not sent any weather packets the latest 10 day(s).

<< 103 104 105 106 107 108 109 >>
Time Temp. Humidity Pressure Rain* Wind** Luminosity Snow
1787775686 26.67° C 62% 1018.1 hPa 0 mm - 113 W/m² -
1787775384 26.11° C 62% 1018 hPa 0 mm - 114 W/m² -
1787775079 26.67° C 62% 1018 hPa 0 mm - 437 W/m² -
1787774779 27.78° C 59% 1018 hPa 0 mm - 103 W/m² -
1787774473 28.33° C 56% 1018 hPa 0 mm - 459 W/m² -
1787774172 28.33° C 57% 1018.2 hPa 0 mm - 471 W/m² -
1787773871 27.22° C 56% 1018.2 hPa 0 mm - 490 W/m² -
1787773569 27.22° C 55% 1018 hPa 0 mm - 508 W/m² -
1787773266 27.78° C 48% 1018.2 hPa 0 mm - 113 W/m² -
1787772961 28.89° C 47% 1018.3 hPa 0 mm - 120 W/m² -
1787772657 28.89° C 46% 1017.9 hPa 0 mm - 571 W/m² -
1787772355 29.44° C 45% 1018.2 hPa 0 mm - 585 W/m² -
1787772055 28.89° C 47% 1018.2 hPa 0 mm - 594 W/m² -
1787771754 30° C 47% 1018.2 hPa 0 mm - 611 W/m² -
1787771453 29.44° C 48% 1018 hPa 0 mm - 609 W/m² -
1787771153 28.89° C 48% 1018 hPa 0 mm - 618 W/m² -
1787770849 28.33° C 51% 1017.9 hPa 0 mm - 613 W/m² -
1787770547 28.89° C 52% 1018.1 hPa 0 mm - 610 W/m² -
1787770246 28.33° C 51% 1018.2 hPa 0 mm - 626 W/m² -
1787769945 28.89° C 52% 1018.1 hPa 0 mm - 152 W/m² -
1787769641 30° C 50% 1018 hPa 0 mm - 660 W/m² -
1787769338 29.44° C 50% 1018.2 hPa 0 mm - 689 W/m² -
1787769034 28.33° C 54% 1018 hPa 0 mm - 672 W/m² -
1787768729 28.33° C 52% 1018.1 hPa 0 mm - 638 W/m² -
1787768426 28.89° C 52% 1017.9 hPa 0 mm - 691 W/m² -

* Rain latest hour (hover to see other rain measurements)
** Current wind speed in m/s (hover to see current wind gust speed)